When you browse on this site, cookies collect data to enhance your experience and personalize the content and advertising you see.
Visit our Privacy Policy to learn more. By continuing to use the site, you agree to this use of cookies and data.
  • In United Kingdom
  • List of Countries
  • For 7 days
  • Water Temperature
  • Weather Map
  • Weather Widgets
  • user-avatar
    Login

    Hourly Weather Chorkowka

    Today, 6 June, Saturday

    Time Temperature Precipitation Wind Pressure Humidity
    00:00 +15°C° 0.8 mm 2 mps 726 mmHg 97%
    01:00 +15°C° 0 mm 2 mps 726 mmHg 98%
    02:00 +15°C° 0.2 mm 1 mps 727 mmHg 97%
    03:00 +14°C° 0.2 mm 1 mps 727 mmHg 97%
    04:00 +14°C° 0.2 mm 1 mps 727 mmHg 96%
    05:00 +15°C° 0 mm 1 mps 728 mmHg 91%
    06:00 +18°C° 0 mm 1 mps 728 mmHg 86%
    07:00 +19°C° 0 mm 1 mps 729 mmHg 81%
    08:00 +20°C° 0.1 mm 2 mps 729 mmHg 74%
    09:00 +21°C° 0.1 mm 2 mps 730 mmHg 68%
    10:00 +22°C° 0.1 mm 3 mps 730 mmHg 62%
    11:00 +22°C° 0.2 mm 3 mps 730 mmHg 61%
    12:00 +24°C° 0.2 mm 3 mps 730 mmHg 61%
    13:00 +24°C° 0.2 mm 3 mps 730 mmHg 61%
    14:00 +24°C° 0 mm 3 mps 730 mmHg 62%
    15:00 +24°C° 0 mm 3 mps 730 mmHg 63%
    16:00 +25°C° 0 mm 2 mps 730 mmHg 64%
    17:00 +23°C° 0.1 mm 2 mps 729 mmHg 71%
    18:00 +20°C° 0.1 mm 2 mps 729 mmHg 79%
    19:00 +18°C° 0.1 mm 2 mps 729 mmHg 86%
    20:00 +19°C° 0 mm 1 mps 729 mmHg 88%
    21:00 +18°C° 0 mm 1 mps 729 mmHg 89%
    22:00 +16°C° 0 mm 1 mps 729 mmHg 91%
    23:00 +16°C° 0 mm 1 mps 729 mmHg 91%

    Tomorrow, 7 June, Sunday

    Time Temperature Precipitation Wind Pressure Humidity
    00:00 +16°C° 0 mm 1 mps 729 mmHg 91%
    01:00 +15°C° 0 mm 1 mps 729 mmHg 91%
    02:00 +15°C° 0 mm 1 mps 729 mmHg 91%
    03:00 +15°C° 0 mm 1 mps 729 mmHg 91%
    04:00 +15°C° 0 mm 1 mps 729 mmHg 91%
    05:00 +18°C° 0 mm 1 mps 729 mmHg 86%
    06:00 +20°C° 0 mm 1 mps 729 mmHg 82%
    07:00 +22°C° 0 mm 1 mps 729 mmHg 77%
    08:00 +23°C° 0 mm 2 mps 729 mmHg 72%
    09:00 +25°C° 0 mm 2 mps 729 mmHg 66%
    10:00 +26°C° 0 mm 3 mps 730 mmHg 60%
    11:00 +27°C° 0.6 mm 3 mps 729 mmHg 61%
    12:00 +27°C° 0.6 mm 3 mps 729 mmHg 61%
    13:00 +27°C° 0.6 mm 4 mps 729 mmHg 62%
    14:00 +27°C° 1.5 mm 3 mps 729 mmHg 67%
    15:00 +26°C° 1.5 mm 3 mps 729 mmHg 72%
    16:00 +25°C° 1.5 mm 3 mps 729 mmHg 78%
    17:00 +24°C° 0.3 mm 3 mps 729 mmHg 81%
    18:00 +21°C° 0.3 mm 3 mps 728 mmHg 83%
    19:00 +20°C° 0.3 mm 2 mps 728 mmHg 86%
    20:00 +19°C° 0 mm 2 mps 729 mmHg 87%
    21:00 +18°C° 0 mm 2 mps 729 mmHg 89%
    22:00 +17°C° 0 mm 2 mps 729 mmHg 90%
    23:00 +17°C° 0.1 mm 2 mps 729 mmHg 90%

    Day after tomorrow, 8 June, Monday

    Time Temperature Precipitation Wind Pressure Humidity
    00:00 +17°C° 0.1 mm 3 mps 729 mmHg 91%
    01:00 +17°C° 0.1 mm 3 mps 729 mmHg 91%
    02:00 +17°C° 0 mm 3 mps 729 mmHg 91%
    03:00 +16°C° 0 mm 3 mps 728 mmHg 92%
    04:00 +16°C° 0 mm 3 mps 728 mmHg 93%
    05:00 +17°C° 0 mm 3 mps 728 mmHg 90%
    06:00 +18°C° 0 mm 3 mps 729 mmHg 87%
    07:00 +19°C° 0 mm 3 mps 729 mmHg 84%
    08:00 +20°C° 0.1 mm 3 mps 729 mmHg 80%
    09:00 +21°C° 0.1 mm 3 mps 729 mmHg 76%
    10:00 +22°C° 0.1 mm 3 mps 730 mmHg 71%
    11:00 +24°C° 1.2 mm 3 mps 729 mmHg 71%
    12:00 +24°C° 1.2 mm 3 mps 729 mmHg 71%
    13:00 +25°C° 1.2 mm 3 mps 729 mmHg 71%
    14:00 +24°C° 1.6 mm 3 mps 729 mmHg 77%
    15:00 +22°C° 1.6 mm 4 mps 729 mmHg 82%
    16:00 +20°C° 1.6 mm 4 mps 729 mmHg 87%
    17:00 +19°C° 0.3 mm 4 mps 730 mmHg 89%
    18:00 +18°C° 0.3 mm 4 mps 730 mmHg 91%
    19:00 +15°C° 0.3 mm 4 mps 730 mmHg 92%
    20:00 +16°C° 0 mm 3 mps 730 mmHg 93%
    21:00 +14°C° 0 mm 3 mps 731 mmHg 94%
    22:00 +13°C° 0 mm 3 mps 731 mmHg 95%
    23:00 +13°C° 0 mm 3 mps 731 mmHg 95%

    9 June, Tuesday

    Time Temperature Precipitation Wind Pressure Humidity
    00:00 +13°C° 0 mm 2 mps 731 mmHg 95%
    01:00 +13°C° 0 mm 2 mps 732 mmHg 95%
    02:00 +13°C° 0 mm 2 mps 732 mmHg 95%
    03:00 +13°C° 0 mm 2 mps 732 mmHg 95%
    04:00 +12°C° 0 mm 1 mps 732 mmHg 95%
    05:00 +13°C° 0 mm 2 mps 732 mmHg 92%
    06:00 +14°C° 0 mm 2 mps 732 mmHg 90%
    07:00 +15°C° 0 mm 2 mps 732 mmHg 87%
    08:00 +15°C° 0 mm 2 mps 733 mmHg 86%
    09:00 +16°C° 0 mm 2 mps 733 mmHg 85%
    10:00 +17°C° 0 mm 2 mps 733 mmHg 84%
    11:00 +17°C° 0 mm 3 mps 733 mmHg 84%
    12:00 +18°C° 0 mm 3 mps 733 mmHg 83%
    13:00 +18°C° 0 mm 3 mps 733 mmHg 83%
    14:00 +18°C° 0 mm 3 mps 733 mmHg 85%
    15:00 +18°C° 0 mm 3 mps 732 mmHg 87%
    16:00 +18°C° 0 mm 3 mps 732 mmHg 89%
    17:00 +17°C° 0 mm 2 mps 732 mmHg 90%
    18:00 +17°C° 0 mm 2 mps 732 mmHg 92%
    19:00 +17°C° 0 mm 2 mps 732 mmHg 93%
    20:00 +17°C° 0 mm 2 mps 732 mmHg 94%
    21:00 +16°C° 0 mm 2 mps 733 mmHg 95%
    22:00 +16°C° 0 mm 2 mps 733 mmHg 96%
    23:00 +16°C° 0 mm 2 mps 732 mmHg 97%

    10 June, Wednesday

    Time Temperature Precipitation Wind Pressure Humidity
    00:00 +16°C° 0 mm 2 mps 732 mmHg 97%
    01:00 +16°C° 0 mm 2 mps 732 mmHg 98%
    02:00 +16°C° 0 mm 2 mps 732 mmHg 98%
    03:00 +16°C° 0 mm 2 mps 732 mmHg 98%
    04:00 +16°C° 0 mm 2 mps 732 mmHg 98%
    05:00 +16°C° 0 mm 2 mps 731 mmHg 97%
    06:00 +16°C° 0 mm 2 mps 731 mmHg 96%
    07:00 +17°C° 0 mm 2 mps 731 mmHg 95%
    08:00 +18°C° 0 mm 2 mps 731 mmHg 92%
    09:00 +18°C° 0 mm 2 mps 731 mmHg 90%
    10:00 +19°C° 0 mm 2 mps 731 mmHg 88%
    11:00 +20°C° 0.1 mm 2 mps 731 mmHg 85%
    12:00 +21°C° 0.1 mm 2 mps 731 mmHg 83%
    13:00 +21°C° 0.1 mm 3 mps 730 mmHg 81%
    14:00 +21°C° 0.2 mm 3 mps 730 mmHg 82%
    15:00 +21°C° 0.2 mm 3 mps 730 mmHg 83%
    16:00 +22°C° 0.2 mm 3 mps 729 mmHg 84%
    17:00 +21°C° 0.2 mm 2 mps 729 mmHg 87%
    18:00 +20°C° 0.2 mm 2 mps 729 mmHg 90%
    19:00 +21°C° 0.2 mm 1 mps 729 mmHg 93%
    20:00 +20°C° 0.5 mm 1 mps 729 mmHg 94%
    21:00 +19°C° 0.5 mm 1 mps 729 mmHg 95%
    22:00 +18°C° 0.5 mm 1 mps 729 mmHg 97%
    23:00 +18°C° 0.3 mm 1 mps 729 mmHg 97%

    11 June, Thursday

    Time Temperature Precipitation Wind Pressure Humidity
    00:00 +18°C° 0.3 mm 1 mps 729 mmHg 98%
    01:00 +18°C° 0.3 mm 1 mps 729 mmHg 98%
    02:00 +18°C° 0.1 mm 1 mps 728 mmHg 98%
    03:00 +18°C° 0.1 mm 1 mps 728 mmHg 98%
    04:00 +18°C° 0.1 mm 1 mps 728 mmHg 98%
    05:00 +19°C° 0 mm 1 mps 728 mmHg 96%
    06:00 +19°C° 0 mm 1 mps 728 mmHg 94%
    07:00 +18°C° 0 mm 0 mps 729 mmHg 92%
    08:00 +19°C° 0 mm 0 mps 728 mmHg 88%
    09:00 +22°C° 0 mm 1 mps 728 mmHg 85%
    10:00 +23°C° 0 mm 1 mps 728 mmHg 81%
    11:00 +23°C° 0.1 mm 1 mps 728 mmHg 79%
    12:00 +24°C° 0.1 mm 1 mps 728 mmHg 78%
    13:00 +24°C° 0.1 mm 1 mps 728 mmHg 76%
    14:00 +24°C° 0.8 mm 1 mps 727 mmHg 79%
    15:00 +24°C° 0.8 mm 1 mps 727 mmHg 82%
    16:00 +24°C° 0.8 mm 2 mps 727 mmHg 85%
    17:00 +23°C° 0.7 mm 1 mps 727 mmHg 86%
    18:00 +22°C° 0.7 mm 1 mps 727 mmHg 88%
    19:00 +21°C° 0.7 mm 1 mps 727 mmHg 90%
    20:00 +20°C° 0 mm 1 mps 727 mmHg 91%
    21:00 +19°C° 0 mm 1 mps 727 mmHg 92%
    22:00 +16°C° 0 mm 0 mps 727 mmHg 93%
    23:00 +16°C° 0.1 mm 0 mps 726 mmHg 93%
    Show more